Location: Hermaringen
(48.5952°N, 10.2585°E)
Time: 10:44:14
(UTC+00:00)

A-11 Canister half - Pass Details

Date: 24 February 2026
Orbit: 1513 x 1687 km, 47.2° (Epoch: 11 March)

Event Time Altitude Azimuth Distance (km) Brightness Sun altitude
Rises 22:17:17 0° 277° (W) 4,938 12.0 -47.6°
Reaches altitude 10° 22:20:29 10° 276° (W) 3,940 11.4 -47.8°
Enters shadow 22:24:21 27° 274° (W) 2,786 10.4 -48.1°
